{"data":{"norad_id":67971,"epoch":"2026-09-19T21:58:45.434496Z","epoch_age_seconds":109986,"freshness":"FRESH","line1":"1 67971U 26038L   26262.91580364  .00014485  00000+0  44971-3 0  9992","line2":"2 67971  97.2845 271.2607 0002371  87.0483 273.1032 15.33473957 33006","mean_motion":15.33473957,"eccentricity":0.0002371,"inclination_deg":97.2845,"raan_deg":271.2607,"arg_perigee_deg":87.0483,"mean_anomaly_deg":273.1032,"bstar":0.00044971,"rev_number":3300,"period_min":93.904431400787,"perigee_km":463.83440403268,"apogee_km":467.07963631705,"semimajor_km":6843.5940201749,"source":"CELESTRAK","updated_at":"2026-09-20T09:00:43.731081Z"}}